Regional Weather Roundup
Issued by NWS Cleveland, OH

Home | Current Version | Previous Version | Text Only | Print | Product List | Glossary Off
Versions: 1 2 3 4 5 6 7 8 9 10 11 12 13 14 15 16 17 18 19 20 21 22 23 24 25 26 27 28 29 30 31 32 33 34 35 36 37 38 39 40 41 42 43 44 45 46 47 48 49 50

000
ASUS41 KCLE 280300
RWRCLE
OHIO REGIONAL WEATHER ROUNDUP
NATIONAL WEATHER SERVICE WILMINGTON, OH
1000 PM EST MON FEB 27 2017

NOTE: "FAIR" INDICATES FEW OR NO CLOUDS BELOW 12,000 FEET WITH NO
SIGNIFICANT WEATHER AND/OR OBSTRUCTIONS TO VISIBILITY.

OHZ001>008-015>018-024>027-034-035-043-044-280400-
   NORTHWEST OHIO

CITY           SKY/WX    TMP DP  RH WIND       PRES   REMARKS
DEFIANCE       FAIR      39  35  86 SE3       30.19S
FINDLAY        FAIR      43  38  82 SE10      30.20S
TOLEDO EXPRESS FAIR      40  38  93 S3        30.20R
TOLEDO EXEC    FAIR      41  38  89 S13       30.21S
LIMA           CLOUDY    43  41  93 SE12      30.19S
$$

OHZ009>014-019>023-028>033-038-089-280400-
   NORTHEAST OHIO

CITY           SKY/WX    TMP DP  RH WIND       PRES   REMARKS
CLE-HOPKINS    FAIR      42  34  73 S7        30.26S
CLE-LAKEFRONT  FAIR      44  35  70 S13       30.24R
CUY CO. ARPT   CLOUDY    43  34  70 S12       30.25R
LORAIN-ELYRIA  MOCLDY    40  34  79 S8        30.24R
ASHTABULA      FAIR      40  35  83 S8        30.26S
AKRON-CANTON   CLOUDY    41  35  79 SE9       30.24F
WOOSTER        NOT AVBL
MANSFIELD      FAIR      40  38  93 SE9       30.22S
YOUNGSTOWN     LGT RAIN  40  35  83 SE9       30.25F
$$

OHZ042-051>053-060>062-070>072-077>081-280400-
  SOUTHWEST OHIO

CITY           SKY/WX    TMP DP  RH WIND       PRES   REMARKS
CINC-COVINGTON FAIR      43  40  89 SE8       30.19S
CINC-LUNKEN    FAIR      36  36 100 CALM      30.22F
HAMILTON       FAIR      40  39  97 CALM      30.21S
DAYTON         NOT AVBL
WRIGHT-PAT AFB NOT AVBL
DAYTON GENERAL CLOUDY    44  40  85 SE9       30.18F
WILMINGTON     FAIR      39  38  96 SE8       30.21S
$$

OHZ036-037-039>041-045>050-054>059-063>069-073>076-082>088-280400-
  CENTRAL AND SOUTHEAST OHIO

CITY           SKY/WX    TMP DP  RH WIND       PRES   REMARKS
COLUMBUS       FAIR      44  40  85 SE6       30.23S
OSU AIRPORT    FAIR      41  40  96 SE7       30.22S
BOLTON FIELD   NOT AVBL
RICKENBACK AFB NOT AVBL
NEWARK         FAIR      38  37  97 CALM      30.23F FOG
MARION         MOCLDY    41  39  93 S7        30.23R
LANCASTER      FAIR      43  40  89 SE7       30.24S
ZANESVILLE     FOG       39  38  96 CALM      30.25S VSB 3/4
NEW PHILLY     FAIR      39  37  92 CALM      30.27S
$$




USA.gov is the U.S. government's official web portal to all federal, state and local government web resources and services.